Satellite-Ground Cal/Val Site Overpasses Predictions

Prediction of Satellite NPP Overpassing Cal/Val Site: Antarctic Dome C

Ground Cal/Val Site Location: Latitude: -75.10, Longitude: 123.35; Satellite-Ground Site NADIR distance within 100 km.

Table of predicted overpasses for the next 14.0 days since TLE Epoch: 8/17/2024
Interval Starting Time Ending Time Minimum Distance Time Minimum Distance (km)
1 08/17/2024 15:01:46 08/17/2024 15:02:09 08/17/2024 15:01:57 62.12
2 08/18/2024 14:42:55 08/18/2024 14:43:21 08/18/2024 14:43:08 47.28
3 08/19/2024 07:44:37 08/19/2024 07:44:55 08/19/2024 07:44:46 75.79
4 08/20/2024 07:25:43 08/20/2024 07:26:11 08/20/2024 07:25:57 31.83
5 08/22/2024 15:08:13 08/22/2024 15:08:13 08/22/2024 15:08:13 99.87
6 08/23/2024 14:49:08 08/23/2024 14:49:37 08/23/2024 14:49:22 11.63
7 08/25/2024 07:31:56 08/25/2024 07:32:25 08/25/2024 07:32:11 4.85
8 08/28/2024 14:55:22 08/28/2024 14:55:50 08/28/2024 14:55:36 24.66
9 08/29/2024 14:36:37 08/29/2024 14:36:54 08/29/2024 14:36:45 82.65
